sat.trackr.live / text

‹ back to catalog

STARLINK-4756

NORAD 53826 · 2022-114J

PAYLOAD ACTIVE UNKNOWN

§ Identity

Operator
Country
US
Launch date
2022-09-19
Launch site
AFETR
Launch vehicle
Mass (kg)
RCS (m²)

Purposes: comms

External: N2YO · Heavens-Above · Gunter

§ Orbital elements

Epoch: 2026-09-20T09:14:51.320544Z

Period
93.85 min
Inclination
53.1606°
Eccentricity
0.0000409
Mean motion
15.34386557 rev/d
Perigee alt
462.5 km
Apogee alt
463.0 km
Semi-major
6,840.9 km
B*
-2.5668e-5
RAAN
140.3309°
Arg perigee
210.2657°
Mean anomaly
149.8322°
Rev number
22,235

§ Raw data

STARLINK-47561 53826U 22114J   26263.38531621 -.00001242  00000+0 -25668-4 0  99932 53826  53.1606 140.3309 0000409 210.2657 149.8322 15.34386557222353

JSON: /api/v1/satellites/53826 · /tle

For live sub-satellite position, see the globe view (requires WebGL).

§ Visibility from observer

Set your observer location to see the next 7 days of passes ≥ 10°. The values pass through the URL so the page stays shareable.

No JS? Fill the form by hand. The geolocation button needs JavaScript.